Location: ????????
(55.5667°N, 37.5833°E)
Time: 19:55:22
(UTC+00:00)

Cosmos 676 Rocket - Pass Details

Date: 14 April 2026
Orbit: 750 x 779 km, 74.0° (Epoch: 19 May)

Event Time Altitude Azimuth Distance (km) Brightness Sun altitude
Rises 21:11:50 0° 332° (NNW) 3,274 8.3 -24.7°
Reaches altitude 10° 21:14:15 10° 335° (NNW) 2,340 7.4 -24.7°
Maximum altitude 21:19:34 70° 59° (ENE) 825 4.1 -24.7°
Enters shadow 21:20:32 57° 116° (ESE) 915 4.1 -24.7°
